Location: Plainartige
(45.6866°N, 1.7993°E)
Time: 14:51:36
(UTC+00:00)

POLYITAN 1 - Pass Details

Date: 02 July 2022
Orbit: 586 x 605 km, 98.0° (Epoch: 18 August)

Event Time Altitude Azimuth Distance (km) Brightness Sun altitude
Rises 01:26:17 0° 17° (NNE) 2,861 ? -18.3°
Reaches altitude 10° 01:28:30 10° 22° (NNE) 1,956 ? -18.2°
Maximum altitude 01:32:41 55° 100° (E) 729 ? -17.9°
Enters shadow 01:34:34 30° 165° (SSE) 1,095 ? -17.8°
